SCP
4 5 6 8 9 9 8 8 6 4 3 2 2 1 2 3 4 4 5 5 6 5 4 3 3 3 3 3 2 2 2 2 1 1 1 1 1 1 1 1 1 1 1
5 5 6 8 10 10 9 7 6 5 4 3 2 2 2 2 3 4 5 5 6 6 5 4 3 3 3 3 3 2 2 2 2 1 1 1 1 1 1 1 1 1 1
6 6 8 10 11 11 9 8 6 5 4 3 2 1 2 2 3 5 5 6 6 6 5 5 4 3 3 4 3 3 2 2 2 1 1 1 1 2 2 1 1 1 1
7 8 9 9 10 10 10 8 8 7 6 4 2 1 1 2 4 5 6 6 6 5 5 5 4 3 4 5 4 3 3 2 2 2 1 2 2 2 2 2 1 1 1
8 8 8 8 9 10 10 10 11 9 7 5 3 2 2 3 4 4 5 5 5 5 4 4 4 3 3 4 3 3 3 3 2 2 2 2 2 3 2 2 1 1 1
8 7 7 7 8 9 10 12 13 12 9 6 4 3 3 3 3 3 3 4 4 4 4 4 4 3 3 3 2 2 2 2 2 2 2 2 3 3 3 3 2 2 2
8 7 6 7 8 8 9 11 12 12 10 7 4 3 3 3 2 1 2 3 4 4 4 5 5 4 4 3 3 2 2 2 2 3 3 3 3 4 4 4 3 3 3
8 6 6 7 7 7 7 8 9 10 10 7 5 4 3 3 2 1 1 3 4 4 5 6 6 6 5 4 4 3 3 3 3 3 3 2 3 3 4 4 4 4 3
6 6 6 7 6 6 6 6 6 7 7 6 4 4 3 3 3 2 2 3 4 5 5 6 6 6 5 4 4 4 4 4 3 3 2 2 2 2 3 4 5 4 4
6 6 6 6 5 5 5 5 5 5 5 5 4 4 4 4 3 2 2 3 4 4 4 4 4 4 3 2 2 3 4 4 3 3 3 2 2 2 2 3 5 5 5
6 5 4 4 4 4 4 5 4 4 4 5 5 4 4 4 3 2 2 2 3 3 3 3 3 2 1 1 1 2 3 3 4 4 3 3 3 4 4 4 5 5 5
7 6 4 3 4 4 5 5 5 4 4 5 5 5 4 3 3 2 1 1 1 2 2 2 2 1 0 0 1 1 1 2 4 4 4 4 4 4 5 5 6 6 6
7 5 4 4 4 4 5 5 5 5 5 4 4 4 3 3 2 2 1 1 1 1 2 2 1 1 0 0 0 0 1 2 3 4 4 4 4 4 5 6 6 7 7
6 5 4 4 4 5 5 5 5 5 5 4 4 3 3 3 3 3 3 2 1 1 2 2 1 1 1 1 1 1 1 2 3 4 5 5 5 5 5 5 5 6 6
6 6 5 5 5 5 5 5 4 4 4 4 4 4 3 3 2 3 3 3 2 2 2 2 2 2 2 2 2 2 2 3 3 4 5 6 7 7 6 5 5 5 5
5 5 5 5 5 6 6 6 5 4 3 2 3 3 3 2 1 1 2 2 1 1 1 2 2 2 2 2 2 2 3 3 4 4 5 6 8 9 8 6 6 6 6
3 4 4 4 4 5 6 6 5 4 3 2 1 1 1 1 1 0 0 0 0 0 1 1 2 2 2 2 2 2 2 3 4 4 5 6 7 8 8 7 7 7 7
2 3 3 3 4 4 5 5 6 5 5 4 2 1 0 0 0 0 0 0 1 1 1 1 2 3 3 3 2 2 2 2 3 4 5 5 5 6 7 7 7 7 7
3 2 3 3 3 4 4 4 5 5 6 5 4 3 1 0 0 0 0 1 2 2 2 2 2 3 4 3 3 2 2 2 3 4 5 5 5 5 5 5 5 5 5
3 2 2 3 4 4 5 5 5 6 6 5 5 4 3 2 1 1 1 2 3 3 3 3 3 3 4 4 3 2 2 2 2 3 5 5 5 5 4 4 4 4 4
3 3 3 3 4 5 6 6 6 6 6 5 5 4 4 3 3 2 2 3 3 3 4 4 4 4 4 4 3 2 1 1 2 3 4 5 5 4 4 3 3 2 2
4 4 3 4 4 5 6 7 7 7 5 4 4 4 4 4 4 4 3 3 3 3 4 4 4 4 4 4 3 2 1 1 1 2 3 4 4 3 2 2 1 1 1
4 4 4 4 4 5 6 7 7 5 4 3 3 3 4 5 5 5 4 4 4 4 4 3 3 3 3 3 2 2 2 1 1 2 2 2 2 2 1 1 0 0 0
4 4 4 4 4 4 5 5 5 3 2 2 2 3 3 5 5 5 5 5 5 5 4 3 2 2 2 2 2 2 2 2 1 1 1 1 1 1 1 1 0 0 0
3 3 3 3 3 3 3 3 2 2 2 2 2 2 3 4 5 5 5 7 7 7 5 4 2 2 1 1 1 1 1 1 1 1 1 1 1 1 1 0 0 0 0
3 3 3 3 2 2 2 1 1 1 2 2 2 2 2 3 4 4 6 7 8 8 6 4 2 2 1 1 1 1 1 0 0 0 1 1 1 1 0 0 0 0 0
Wind_Speed
7 6 5 5 5 5 4 3 3 2 2 2 2 2 2 3 3 3 3 3 4 3 3 3 3 3 3 3 3 3 3 3 3 2 2 2 3 2 1 2 3 3 3
7 7 6 5 5 5 4 4 3 3 3 2 2 2 3 3 3 3 3 3 3 4 4 4 4 3 4 3 3 4 3 3 4 3 2 2 3 3 3 3 2 2 2
7 7 6 6 5 5 4 3 3 3 2 2 2 2 2 2 2 3 3 3 3 3 4 4 4 4 4 3 4 4 4 4 3 4 4 2 3 3 3 3 3 2 2
6 6 6 6 5 5 4 3 3 2 2 2 2 2 2 2 3 3 3 3 3 3 4 4 4 5 5 4 4 4 4 4 4 4 4 3 3 3 4 3 3 3 3
6 6 5 5 5 4 4 3 3 2 3 3 3 3 3 3 3 2 3 3 4 4 4 4 4 3 2 3 4 4 4 4 4 4 4 4 3 4 4 4 3 3 3
6 5 5 4 4 4 4 3 3 3 3 3 3 3 4 3 1 1 4 4 4 4 4 5 5 5 4 4 4 4 4 5 5 4 4 4 4 5 4 4 3 3 3
6 5 5 5 4 4 4 4 3 4 3 3 4 4 4 2 2 3 4 5 5 4 5 4 5 3 5 5 5 5 6 6 6 6 6 6 5 5 5 6 5 5 4
7 6 5 5 5 4 4 4 3 3 3 3 3 4 4 3 3 3 4 6 5 5 5 5 5 4 4 4 5 5 6 6 6 7 6 6 5 4 6 6 6 6 5
5 5 5 5 5 5 4 3 3 3 3 3 4 4 4 3 3 4 4 5 4 5 5 5 5 5 3 4 6 5 5 5 4 4 3 3 3 4 5 5 5 6 5
4 4 4 4 5 4 3 3 3 3 3 4 3 4 4 4 3 4 6 5 4 4 4 5 4 4 3 5 6 6 6 6 5 5 5 6 7 7 8 7 6 6 6
4 3 3 3 4 4 3 3 3 3 3 3 3 4 4 3 4 5 5 5 4 4 4 4 3 4 5 6 7 6 6 6 6 7 6 6 7 6 7 8 7 7 7
4 4 4 4 3 3 3 3 3 3 4 4 3 4 3 3 3 4 6 6 6 5 5 4 2 3 5 7 7 5 6 7 6 6 6 6 6 6 6 7 8 7 6
4 4 4 4 3 3 3 4 3 4 4 3 3 3 3 2 2 5 7 7 7 6 4 2 2 5 6 7 8 7 7 7 6 6 6 6 6 5 5 6 7 7 8
4 4 3 3 4 3 3 3 3 3 4 3 4 4 4 3 2 2 2 4 5 6 5 4 6 8 8 6 5 6 6 5 5 6 6 5 5 5 6 6 6 6 6
4 4 4 4 3 3 3 3 4 3 3 4 4 4 4 4 2 2 4 4 4 4 5 5 5 4 5 5 5 5 5 5 6 5 5 5 5 5 5 5 5 6 6
4 4 4 4 3 4 4 3 2 4 3 5 5 6 5 4 3 5 6 6 6 6 6 6 5 5 5 5 5 5 5 5 5 5 5 5 5 5 5 5 6 6 6
4 3 4 4 4 4 4 4 4 4 5 7 7 7 7 5 4 5 6 6 6 6 6 6 5 5 5 5 5 6 5 5 5 5 6 6 5 5 5 6 6 6 6
4 3 4 4 5 5 5 5 5 5 4 4 5 7 7 6 6 5 5 4 4 5 6 6 6 6 6 6 5 5 5 5 5 5 5 5 5 6 6 6 6 6 6
4 3 3 4 5 5 5 5 5 5 5 4 3 3 5 5 6 5 6 5 5 5 6 6 6 6 5 5 5 5 5 5 5 5 6 6 6 6 6 6 6 6 7
3 2 4 4 4 4 4 4 4 5 4 4 4 3 1 2 3 3 4 5 6 6 5 6 6 6 6 5 5 5 5 5 5 6 5 5 5 6 6 7 6 6 6
3 2 3 4 4 4 4 4 4 5 5 5 4 3 2 4 5 5 5 5 5 6 6 6 6 6 6 5 5 6 6 5 5 5 5 5 5 5 6 6 6 6 6
2 2 2 3 3 3 4 4 5 5 6 6 5 3 4 5 5 4 4 5 5 5 5 5 5 5 4 5 5 5 5 6 5 5 6 5 5 6 6 6 6 6 6
3 3 3 3 3 3 4 4 5 5 5 5 5 4 4 4 5 4 5 4 5 5 4 5 5 5 4 5 5 5 5 5 5 5 6 6 6 6 5 6 7 7 7
3 3 4 4 4 4 4 4 4 5 5 5 5 5 4 4 5 5 5 4 4 4 4 4 4 5 6 5 4 4 3 3 5 6 7 7 7 6 6 6 6 8 7
3 4 4 4 4 4 4 4 5 5 5 5 5 5 5 5 5 5 4 4 4 4 4 4 3 4 5 5 4 3 1 1 3 4 6 6 7 7 6 7 6 6 7
4 4 4 4 4 4 4 4 5 5 5 5 5 5 5 5 5 5 4 4 4 4 4 4 5 5 5 4 3 2 1 1 2 4 5 5 6 6 6 6 7 7 7
Wind_Direction
188 191 192 191 189 195 202 209 215 224 217 223 234 242 247 243 237 232 234 218 213 210 216 218 229 239 238 234 229 229 232 238 230 209 193 161 185 215 186 218 194 198 151
184 188 191 190 192 197 196 205 213 217 223 222 228 233 245 244 239 232 228 224 221 221 224 229 231 227 227 244 234 231 232 229 229 222 215 195 207 202 201 229 216 199 165
182 186 184 188 192 201 200 201 210 217 227 225 225 232 237 243 245 241 238 236 235 237 235 233 234 235 234 231 236 231 228 218 216 217 220 205 216 205 207 217 215 225 214
185 188 184 193 195 199 199 196 200 208 222 227 228 235 234 234 239 237 235 239 241 242 242 239 238 236 232 230 230 232 232 223 215 223 213 207 209 199 217 216 209 211 226
183 188 187 195 196 199 196 196 202 217 228 225 230 229 231 231 231 237 245 237 239 240 242 242 236 236 259 251 251 233 227 226 221 221 216 211 207 202 216 222 223 220 216
187 188 182 191 193 197 200 201 208 220 235 231 235 238 241 248 112 236 259 250 241 241 242 242 229 211 208 220 249 258 254 238 234 233 229 225 221 219 222 231 226 227 231
181 179 178 186 197 204 207 204 217 224 226 235 244 243 249 243 192 224 237 255 245 245 246 244 247 219 206 219 212 218 234 244 242 245 244 243 230 223 226 226 229 239 248
175 178 182 189 200 204 211 220 230 238 235 238 246 251 253 238 198 223 230 242 248 246 247 244 245 240 229 223 223 221 227 228 228 233 241 244 244 232 229 236 234 234 236
173 177 180 190 194 201 210 217 229 239 243 247 244 248 251 244 200 200 221 242 239 244 246 245 243 236 205 215 229 227 233 238 225 224 238 239 243 234 237 234 227 230 235
174 173 177 189 197 204 212 227 233 237 243 251 250 255 259 260 187 194 219 245 240 244 238 236 228 238 219 213 230 229 232 239 235 215 216 221 224 220 217 229 233 238 247
169 164 179 196 205 209 211 223 231 241 250 255 255 252 250 247 187 191 219 254 256 251 248 243 216 192 216 223 237 242 238 241 236 231 226 221 218 218 217 220 233 243 246
170 172 184 199 216 204 210 220 225 241 241 241 242 255 250 222 209 201 214 239 270 261 260 261 232 181 219 229 232 239 241 240 237 233 233 230 225 222 221 221 221 234 250
179 187 197 202 212 227 221 222 223 226 245 252 255 260 264 257 203 193 207 226 242 253 266 286 244 210 222 228 222 225 225 233 238 237 237 235 233 229 227 219 218 224 234
193 198 204 210 218 220 236 238 246 245 246 254 262 265 267 261 258 234 230 233 232 241 257 240 219 219 229 239 220 218 231 239 241 242 243 241 234 224 222 219 222 220 226
205 209 215 221 227 231 238 252 254 256 262 261 268 271 274 271 275 264 251 252 254 257 260 251 244 234 232 231 230 227 228 226 229 238 242 242 237 230 228 225 225 223 230
219 223 232 235 226 237 239 239 228 249 219 228 245 260 263 258 254 244 243 250 253 244 244 247 248 246 247 246 240 233 229 231 232 230 233 236 236 236 233 226 227 230 233
244 249 256 255 246 246 250 254 256 231 223 224 225 233 246 257 249 244 241 244 240 217 231 248 251 252 252 251 249 247 242 237 235 234 233 236 240 239 235 233 231 232 236
249 243 254 259 259 254 251 256 262 267 263 255 230 223 228 232 235 235 227 226 230 221 240 248 251 252 253 252 252 252 249 243 239 240 238 238 238 241 241 238 235 235 241
261 263 262 268 263 265 266 263 267 272 275 277 280 233 211 217 219 220 209 237 246 241 245 250 253 253 253 255 254 252 248 243 244 246 245 243 241 241 242 241 238 233 238
253 261 267 268 268 271 273 274 278 277 275 275 275 280 263 248 252 235 232 247 253 252 250 251 254 254 252 251 249 251 249 242 240 243 247 249 248 246 245 243 241 239 239
270 233 219 255 265 272 276 278 278 279 278 277 277 276 242 255 258 256 251 249 252 254 252 251 251 250 246 243 246 248 252 251 246 249 247 243 243 247 251 250 248 246 245
279 277 263 268 277 275 280 278 275 275 277 280 284 266 211 245 261 262 261 262 263 262 259 255 253 253 253 253 254 252 251 253 253 252 253 251 246 247 249 250 249 247 244
270 277 275 275 275 272 268 270 273 276 278 278 280 280 266 266 271 270 271 274 276 274 272 268 261 255 251 252 253 254 256 259 260 262 259 257 256 256 254 251 252 250 244
262 271 277 279 276 275 277 278 278 281 283 284 284 282 277 274 275 278 280 284 284 280 278 277 277 272 265 262 260 259 263 276 273 261 259 260 258 256 254 251 249 247 246
266 274 280 280 279 281 282 282 280 282 284 286 287 286 284 280 280 282 283 285 286 286 291 288 283 283 284 281 287 303 355 303 275 281 265 259 257 258 258 256 253 250 246
263 270 273 278 280 282 282 281 280 282 282 283 283 282 281 281 282 282 283 283 283 282 281 278 283 289 294 287 298 322 330 278 265 269 268 261 258 256 259 257 254 249 248